This is the latest recevied weather packets stored in our database for station/object ED5YAL-15. If no packets are shown the sender has not sent any weather packets the latest 10 day(s).
| Time | Temp. | Humidity | Pressure | Rain* | Wind** | Luminosity | Snow |
|---|---|---|---|---|---|---|---|
| 1787705557 | 26.67° C | 27% | 1020.8 hPa | - | - | - | - |
| 1787704656 | 25.56° C | 27% | 1020.7 hPa | - | - | - | - |
| 1787703755 | 25° C | 29% | 1020.3 hPa | - | - | - | - |
| 1787702854 | 25.56° C | 29% | 1020.8 hPa | - | - | - | - |
| 1787701953 | 25° C | 30% | 1020.9 hPa | - | - | - | - |
| 1787701052 | 26.11° C | 29% | 1021.1 hPa | - | - | - | - |
| 1787700152 | 27.22° C | 30% | 1020.8 hPa | - | - | - | - |
| 1787699251 | 29.44° C | 30% | 1021.2 hPa | - | - | - | - |
| 1787698381 | 26.67° C | 30% | 1021.2 hPa | - | - | - | - |
| 1787697480 | 26.67° C | 30% | 1021.5 hPa | - | - | - | - |
| 1787696855 | 26.67° C | 30% | 1021.6 hPa | - | - | - | - |
| 1787696582 | 26.67° C | 30% | 1021.6 hPa | - | - | - | - |
| 1787695678 | 26.67° C | 31% | 1021.6 hPa | - | - | - | - |
| 1787694775 | 26.11° C | 31% | 1021.6 hPa | - | - | - | - |
| 1787693871 | 26.11° C | 31% | 1021.7 hPa | - | - | - | - |
| 1787692968 | 26.67° C | 31% | 1021.7 hPa | - | - | - | - |
| 1787692064 | 26.67° C | 31% | 1021.7 hPa | - | - | - | - |
| 1787691162 | 26.67° C | 31% | 1021.6 hPa | - | - | - | - |
| 1787690261 | 27.22° C | 32% | 1021.6 hPa | - | - | - | - |
| 1787689361 | 27.22° C | 32% | 1021.6 hPa | - | - | - | - |
| 1787688463 | 27.22° C | 32% | 1021.4 hPa | - | - | - | - |
| 1787687559 | 27.22° C | 33% | 1021.3 hPa | - | - | - | - |
| 1787686658 | 27.22° C | 33% | 1021.1 hPa | - | - | - | - |
| 1787685757 | 27.22° C | 33% | 1020.9 hPa | - | - | - | - |
| 1787684857 | 27.78° C | 33% | 1020.8 hPa | - | - | - | - |
* Rain since midnight (hover to see other rain measurements)
** Current wind speed in m/s (hover to see current wind gust speed)